THORAD DELTA 1 DEB, 8405

Orbit data source: Space-Track

THORAD DELTA 1 DEB, 8405 is space debris in LEO originally from a launch on Fri, 15 Nov 1974 UTC launched from the Air Force Western Test Range (AFWTR). Debris objects in space refer to the collection of defunct objects orbiting the Earth. Examples of debris include non-operational satellites, rocket bodies, and fragments generated from explosions, collisions, or faulty payload assembly.

Loading next visibility...
Identifier
8405, 1974-089CH
Orbit
LEO
Country
Flag of USUS
Related business
Manufacturer
Unknown
Mission
Spacecraft
Bus & Motor
Unknown
Mass
Unknown
Launch date (UTC)
1974-11-15 (51 years ago)
Launch vehicle
Unknown
Launch site
Air Force Western Test Range (AFWTR)
Object type
Payload
Rocket body
Debris
Shape & HBR
Unknown shape, 0.1 m
Radar Cross Section
Small (<0.1 m²)

Expand to show TLE details & history
Last TLE update: 12 hours ago

TLE from 12 hours ago
0 THORAD DELTA 1 DEB
1  8405U 74089CH  25300.25493351  .00000490  00000-0  88115-2 0  9995
2  8405 102.7236 230.3938 0682511 142.9444 222.0746 11.30374146104535
Epoch: 2025-10-27T06:07Z
TLE epoch observation values (Epoch: 2025-10-27T06:07:06.255Z)
Latitude
0.00003°
Longitude
102.75832°
Altitude
2,452.087 km
Speed
6.541 km/s
True Right ascension
15h 21m 34s
True Declination
0° 00' 00"
Sunlit
Object was in daylight at epoch
Visualization orbit readout
Latitude
Unknown
Longitude
Unknown
Altitude
Unknown
Speed
Unknown
Apparent Right ascension
Unknown
Apparent Declination
Unknown
Sunlit
N/A
Visualization observer readout
Local Sidereal Time
13:22:02
Azimuth
Unknown
Elevation
Unknown
Doppler factor
Unknown
Orbital elements
Apogee altitude
2,578.473 km
Perigee altitude
1,433.988 km
Semi-major axis
8,384.368 km
Eccentricity
0.06825
Inclination
102.7236°
RAAN
230.3938°
Arg. of periapsis
142.9444°
True anomaly
217.15257°
Mean anomaly
222.0746°
Eccentric anomaly
219.58286°
Mean motion
2.82708 °/min
Orbital period
127.34 mins
BSTAR
0.0088115
Loading maneuver chart data...
Computing Atmospheric mass density...

Documentation

Showing up to 5 results
|